sat.trackr.live / text

‹ back to catalog

STARLINK-31161

NORAD 58795 · 2024-012J

PAYLOAD ACTIVE UNKNOWN

§ Identity

Operator
Country
US
Launch date
2024-01-15
Launch site
AFETR
Launch vehicle
Mass (kg)
RCS (m²)

Purposes: comms

External: N2YO · Heavens-Above · Gunter

§ Orbital elements

Epoch: 2026-05-25T03:52:42.669408Z

Period
94.27 min
Inclination
43.0029°
Eccentricity
0.0000675
Mean motion
15.27578181 rev/d
Perigee alt
482.6 km
Apogee alt
483.5 km
Semi-major
6,861.2 km
B*
2.6994e-5
RAAN
93.1812°
Arg perigee
277.4125°
Mean anomaly
82.6650°
Rev number
13,293

§ Raw data

STARLINK-311611 58795U 24012J   26145.16160497  .00000481  00000+0  26994-4 0  99912 58795  43.0029  93.1812 0000675 277.4125  82.6650 15.27578181132934

JSON: /api/v1/satellites/58795 · /tle

For live sub-satellite position, see the globe view (requires WebGL).

§ Visibility from observer

Set your observer location to see the next 7 days of passes ≥ 10°. The values pass through the URL so the page stays shareable.

No JS? Fill the form by hand. The geolocation button needs JavaScript.